COSMOS 1275 DEB, 20100

Orbit data source: Space-Track

COSMOS 1275 DEB, 20100 is space debris in LEO originally from a launch on Thu, 04 Jun 1981 UTC launched from the Plesetsk Missile And Space Complex (PKMTR). Debris objects in space refer to the collection of defunct objects orbiting the Earth. Examples of debris include non-operational satellites, rocket bodies, and fragments generated from explosions, collisions, or faulty payload assembly.

Loading next visibility...
Identifier
20100, 1981-053ML
Orbit
LEO
Country
Flag of CISCIS
Related business
Manufacturer
Unknown
Mission
Spacecraft
Bus & Motor
Unknown
Mass
Unknown
Launch date (UTC)
1981-06-04 (44 years ago)
Launch vehicle
Unknown
Launch site
Plesetsk Missile And Space Complex (PKMTR)
Object type
Payload
Rocket body
Debris
Shape & HBR
Unknown shape, 0.1 m
Radar Cross Section
Small (<0.1 m²)

Expand to show TLE details & history
Last TLE update: 1 day ago

TLE from 1 day ago
0 COSMOS 1275 DEB
1 20100U 81053ML  25310.51321032  .00000094  00000-0  13059-3 0  9992
2 20100  82.8955 226.4457 0170122 260.7984 280.2398 13.43290307825213
Epoch: 2025-11-06T12:19Z
TLE epoch observation values (Epoch: 2025-11-06T12:19:01.371Z)
Latitude
0.7718°
Longitude
175.62383°
Altitude
1,079.299 km
Speed
7.323 km/s
True Right ascension
03h 05m 23s
True Declination
0° 46' 03"
Sunlit
Object was in full shadow at epoch
Visualization orbit readout
Latitude
Unknown
Longitude
Unknown
Altitude
Unknown
Speed
Unknown
Apparent Right ascension
Unknown
Apparent Declination
Unknown
Sunlit
N/A
Visualization observer readout
Local Sidereal Time
07:57:02
Azimuth
Unknown
Elevation
Unknown
Doppler factor
Unknown
Orbital elements
Apogee altitude
1,221.363 km
Perigee altitude
967.119 km
Semi-major axis
7,472.378 km
Eccentricity
0.01701
Inclination
82.8955°
RAAN
226.4457°
Arg. of periapsis
260.7984°
True anomaly
278.31448°
Mean anomaly
280.2398°
Eccentric anomaly
279.27782°
Mean motion
3.36012 °/min
Orbital period
107.14 mins
BSTAR
0.00013059
Loading maneuver chart data...
Computing Atmospheric mass density...
Loading historical data...
Loading historical data...
Loading historical data...
Loading historical data...
Loading historical data...
Loading historical data...
Loading historical data...

Documentation

Showing up to 5 results
|